When you browse on this site, cookies collect data to enhance your experience and personalize the content and advertising you see.
Visit our Privacy Policy to learn more. By continuing to use the site, you agree to this use of cookies and data.

Hourly Weather Igls

Today, 7 July, Tuesday

Time Temperature Precipitation Wind Pressure Humidity
00:00 +10°C° 0.1 mm 2 mps 686 mmHg 96%
01:00 +10°C° 0 mm 2 mps 686 mmHg 97%
02:00 +10°C° 0.1 mm 2 mps 686 mmHg 97%
03:00 +9°C° 0.1 mm 2 mps 686 mmHg 97%
04:00 +10°C° 0.1 mm 1 mps 686 mmHg 97%
05:00 +10°C° 0 mm 1 mps 686 mmHg 94%
06:00 +11°C° 0 mm 1 mps 687 mmHg 92%
07:00 +12°C° 0 mm 1 mps 687 mmHg 90%
08:00 +14°C° 0 mm 1 mps 687 mmHg 77%
09:00 +16°C° 0 mm 1 mps 687 mmHg 64%
10:00 +20°C° 0 mm 1 mps 687 mmHg 51%
11:00 +20°C° 0 mm 2 mps 687 mmHg 46%
12:00 +21°C° 0 mm 2 mps 687 mmHg 42%
13:00 +23°C° 0 mm 2 mps 687 mmHg 37%
14:00 +23°C° 0 mm 2 mps 687 mmHg 37%
15:00 +23°C° 0 mm 2 mps 687 mmHg 37%
16:00 +23°C° 0 mm 2 mps 687 mmHg 37%
17:00 +21°C° 0 mm 2 mps 686 mmHg 46%
18:00 +19°C° 0 mm 2 mps 686 mmHg 55%
19:00 +18°C° 0 mm 2 mps 686 mmHg 64%
20:00 +16°C° 0 mm 1 mps 686 mmHg 73%
21:00 +13°C° 0 mm 1 mps 686 mmHg 82%
22:00 +10°C° 0 mm 0 mps 685 mmHg 91%
23:00 +10°C° 0 mm 0 mps 685 mmHg 91%

Tomorrow, 8 July, Wednesday

Time Temperature Precipitation Wind Pressure Humidity
00:00 +11°C° 0 mm 1 mps 686 mmHg 91%
01:00 +11°C° 0 mm 1 mps 686 mmHg 90%
02:00 +11°C° 0 mm 1 mps 685 mmHg 90%
03:00 +11°C° 0 mm 1 mps 685 mmHg 89%
04:00 +11°C° 0 mm 1 mps 685 mmHg 89%
05:00 +13°C° 0 mm 1 mps 686 mmHg 81%
06:00 +15°C° 0 mm 1 mps 686 mmHg 74%
07:00 +16°C° 0 mm 0 mps 686 mmHg 67%
08:00 +20°C° 0 mm 1 mps 687 mmHg 59%
09:00 +23°C° 0 mm 1 mps 687 mmHg 52%
10:00 +25°C° 0 mm 1 mps 687 mmHg 45%
11:00 +25°C° 0 mm 1 mps 687 mmHg 43%
12:00 +26°C° 0 mm 1 mps 687 mmHg 40%
13:00 +27°C° 0 mm 2 mps 687 mmHg 38%
14:00 +27°C° 0 mm 2 mps 687 mmHg 39%
15:00 +26°C° 0 mm 2 mps 687 mmHg 40%
16:00 +26°C° 0 mm 3 mps 687 mmHg 41%
17:00 +24°C° 0 mm 2 mps 687 mmHg 51%
18:00 +23°C° 0 mm 2 mps 687 mmHg 60%
19:00 +20°C° 0 mm 2 mps 687 mmHg 69%
20:00 +19°C° 0 mm 1 mps 687 mmHg 76%
21:00 +16°C° 0 mm 1 mps 687 mmHg 84%
22:00 +14°C° 0 mm 1 mps 687 mmHg 91%
23:00 +14°C° 0 mm 1 mps 687 mmHg 91%

Day after tomorrow, 9 July, Thursday

Time Temperature Precipitation Wind Pressure Humidity
00:00 +14°C° 0 mm 1 mps 687 mmHg 91%
01:00 +13°C° 0 mm 1 mps 687 mmHg 92%
02:00 +13°C° 0 mm 1 mps 687 mmHg 91%
03:00 +13°C° 0 mm 1 mps 686 mmHg 91%
04:00 +12°C° 0 mm 1 mps 686 mmHg 91%
05:00 +15°C° 0 mm 1 mps 687 mmHg 82%
06:00 +16°C° 0 mm 0 mps 687 mmHg 74%
07:00 +18°C° 0 mm 0 mps 688 mmHg 66%
08:00 +22°C° 0 mm 1 mps 688 mmHg 58%
09:00 +24°C° 0 mm 1 mps 688 mmHg 51%
10:00 +27°C° 0 mm 1 mps 689 mmHg 43%
11:00 +27°C° 0 mm 1 mps 688 mmHg 41%
12:00 +28°C° 0 mm 1 mps 688 mmHg 39%
13:00 +29°C° 0 mm 1 mps 688 mmHg 37%
14:00 +28°C° 0 mm 1 mps 688 mmHg 40%
15:00 +28°C° 0 mm 1 mps 688 mmHg 44%
16:00 +27°C° 0 mm 2 mps 687 mmHg 47%
17:00 +26°C° 0.1 mm 1 mps 687 mmHg 58%
18:00 +24°C° 0.1 mm 1 mps 687 mmHg 69%
19:00 +23°C° 0.1 mm 1 mps 686 mmHg 80%
20:00 +21°C° 0.1 mm 1 mps 686 mmHg 84%
21:00 +20°C° 0.1 mm 1 mps 686 mmHg 88%
22:00 +18°C° 0.1 mm 1 mps 686 mmHg 91%
23:00 +18°C° 0 mm 1 mps 686 mmHg 91%

10 July, Friday

Time Temperature Precipitation Wind Pressure Humidity
00:00 +18°C° 0 mm 1 mps 686 mmHg 91%
01:00 +16°C° 0 mm 1 mps 686 mmHg 91%
02:00 +16°C° 0 mm 1 mps 686 mmHg 91%
03:00 +16°C° 0 mm 1 mps 685 mmHg 91%
04:00 +16°C° 0 mm 1 mps 685 mmHg 91%
05:00 +18°C° 0 mm 1 mps 685 mmHg 86%
06:00 +20°C° 0 mm 1 mps 685 mmHg 81%
07:00 +22°C° 0 mm 1 mps 686 mmHg 76%
08:00 +24°C° 0.1 mm 1 mps 686 mmHg 67%
09:00 +27°C° 0.1 mm 1 mps 686 mmHg 59%
10:00 +29°C° 0.1 mm 1 mps 686 mmHg 51%
11:00 +29°C° 0.3 mm 1 mps 686 mmHg 49%
12:00 +29°C° 0.3 mm 1 mps 685 mmHg 48%
13:00 +29°C° 0.3 mm 1 mps 685 mmHg 47%
14:00 +27°C° 1.3 mm 1 mps 685 mmHg 58%
15:00 +25°C° 1.3 mm 1 mps 684 mmHg 69%
16:00 +23°C° 1.3 mm 1 mps 683 mmHg 80%
17:00 +22°C° 2.8 mm 1 mps 684 mmHg 84%
18:00 +22°C° 2.8 mm 1 mps 684 mmHg 88%
19:00 +21°C° 2.8 mm 1 mps 684 mmHg 92%
20:00 +20°C° 3.3 mm 1 mps 684 mmHg 94%
21:00 +19°C° 3.3 mm 1 mps 685 mmHg 96%
22:00 +19°C° 3.3 mm 1 mps 685 mmHg 98%
23:00 +17°C° 3.4 mm 2 mps 685 mmHg 98%

11 July, Saturday

Time Temperature Precipitation Wind Pressure Humidity
00:00 +17°C° 3.4 mm 2 mps 684 mmHg 98%
01:00 +16°C° 3.4 mm 2 mps 684 mmHg 98%
02:00 +16°C° 3.2 mm 2 mps 684 mmHg 98%
03:00 +15°C° 3.2 mm 2 mps 684 mmHg 98%
04:00 +15°C° 3.2 mm 2 mps 684 mmHg 98%
05:00 +15°C° 2.2 mm 2 mps 684 mmHg 98%
06:00 +14°C° 2.2 mm 2 mps 684 mmHg 98%
07:00 +14°C° 2.2 mm 2 mps 685 mmHg 98%
08:00 +14°C° 1.8 mm 2 mps 685 mmHg 98%
09:00 +13°C° 1.8 mm 2 mps 685 mmHg 97%
10:00 +13°C° 1.8 mm 2 mps 686 mmHg 97%
11:00 +13°C° 1.9 mm 2 mps 686 mmHg 95%
12:00 +13°C° 1.9 mm 2 mps 686 mmHg 93%
13:00 +14°C° 1.9 mm 1 mps 687 mmHg 91%
14:00 +14°C° 0.4 mm 2 mps 687 mmHg 88%
15:00 +15°C° 0.4 mm 2 mps 687 mmHg 85%
16:00 +16°C° 0.4 mm 2 mps 687 mmHg 82%
17:00 +15°C° 0.4 mm 2 mps 687 mmHg 85%
18:00 +15°C° 0.4 mm 2 mps 687 mmHg 88%
19:00 +14°C° 0.4 mm 2 mps 687 mmHg 92%
20:00 +13°C° 0.1 mm 2 mps 688 mmHg 93%
21:00 +12°C° 0.1 mm 1 mps 688 mmHg 95%
22:00 +11°C° 0.1 mm 1 mps 689 mmHg 96%
23:00 +11°C° 0 mm 1 mps 689 mmHg 96%

12 July, Sunday

Time Temperature Precipitation Wind Pressure Humidity
00:00 +10°C° 0 mm 1 mps 689 mmHg 96%
01:00 +10°C° 0 mm 1 mps 689 mmHg 96%
02:00 +9°C° 0 mm 1 mps 689 mmHg 96%
03:00 +9°C° 0 mm 1 mps 689 mmHg 96%
04:00 +8°C° 0 mm 1 mps 689 mmHg 95%
05:00 +10°C° 0 mm 1 mps 689 mmHg 92%
06:00 +11°C° 0 mm 1 mps 689 mmHg 89%
07:00 +12°C° 0 mm 1 mps 690 mmHg 85%
08:00 +14°C° 0 mm 1 mps 690 mmHg 73%
09:00 +16°C° 0 mm 1 mps 690 mmHg 61%
10:00 +18°C° 0 mm 2 mps 691 mmHg 48%
11:00 +19°C° 0 mm 2 mps 691 mmHg 45%
12:00 +21°C° 0 mm 2 mps 691 mmHg 41%
13:00 +23°C° 0 mm 2 mps 691 mmHg 38%
14:00 +23°C° 0 mm 2 mps 691 mmHg 39%
15:00 +23°C° 0 mm 2 mps 691 mmHg 40%
16:00 +23°C° 0 mm 2 mps 690 mmHg 41%
17:00 +20°C° 0 mm 2 mps 690 mmHg 50%
18:00 +19°C° 0 mm 2 mps 690 mmHg 59%
19:00 +18°C° 0 mm 2 mps 690 mmHg 68%
20:00 +15°C° 0 mm 1 mps 690 mmHg 75%
21:00 +13°C° 0 mm 1 mps 689 mmHg 83%
22:00 +10°C° 0 mm 0 mps 689 mmHg 90%
23:00 +10°C° 0 mm 0 mps 689 mmHg 89%
Show more